Regional Weather Roundup
Issued by NWS Kansas City/Pleasant Hill, MO

Home | Current Version | Previous Version | Text Only | Print | Product List | Glossary On
Versions: 1 2 3 4 5 6 7 8 9 10 11 12 13 14 15 16 17 18 19 20 21 22 23 24 25 26 27 28 29 30 31 32 33 34 35 36 37 38 39 40 41 42 43 44 45 46 47 48 49 50
000
ASUS43 KEAX 021511
RWREAX

WEATHER ROUNDUP FOR EASTERN KANSAS AND NORTHWEST MISSOURI
NATIONAL WEATHER SERVICE KANSAS CITY/PLEASANT HILL MO
900 AM CST MON MAR 02 2015

KSZ040-057-103>105-MOZ028-029-037-043-021600-
...KANSAS CITY METROPOLITAN AREA...

CITY           SKY/WX    TMP DP  RH WIND       PRES   REMARKS
K.C. INTL      CLOUDY    28  23  81 S6        30.49R WCI  22
K.C. DOWNTOWN  SUNNY     28  24  85 CALM      30.51S FOG
LEES SUMMIT    PTSUNNY   28  22  78 SE5       30.49S WCI  23
OLATHE - IXD   MOSUNNY   28  23  81 SE6       30.48F WCI  22
OLATHE - OJC   FAIR      28  23  81 SE5       30.47F WCI  23
LAWRENCE       MOSUNNY   27  23  85 SE3       30.50S FOG

$$

MOZ001>008-011>017-020>025-030>033-038>040-044>046-053-054-021600-
...NORTHERN AND CENTRAL MISSOURI...

CITY           SKY/WX    TMP DP  RH WIND       PRES   REMARKS
ST. JOSEPH     CLOUDY    30  24  78 CALM      30.50S HAZE
MOSBY          MOSUNNY   28  25  86 CALM      30.52R
WHITEMAN AFB   PTSUNNY   18  15  90 CALM      30.51R
CLINTON        PTSUNNY   21  21 100 NE5       30.51F FOG     WCI  15
SEDALIA        MOSUNNY   21  18  88 SE3       30.52S FOG
WARSAW         NOT AVBL
MARSHALL       PTSUNNY   19  18  93 CALM      30.53S FOG
CHILLICOTHE      N/A     28  20  71 E7        30.53S WCI  21
MOBERLY        PTSUNNY   25  21  86 NE5       30.54R FOG     WCI  19
KIRKSVILLE     MOSUNNY   25  15  66 NE8       30.54R WCI  16

$$

MOZ041-047>049-056>058-063>065-088>090-097-021600-
...EASTERN AND SOUTHERN MISSOURI...

CITY           SKY/WX    TMP DP  RH WIND       PRES   REMARKS
ST. LOUIS INTL PTSUNNY   27  23  85 CALM      30.55R FOG
SPIRIT OF STL  PTSUNNY   18  16  92 CALM      30.55S
COLUMBIA       PTSUNNY   23  19  85 E6        30.52S WCI  16
JEFFERSON CITY MOSUNNY   18  15  88 E3        30.55F FOG
MEXICO         PTSUNNY  N/A N/A N/A CALM      30.54S FOG
HANNIBAL       PTSUNNY   28  16  59 NE3       30.55S
ROLLA          SUNNY     25  20  81 E7        30.49R WCI  17
LEBANON        MOSUNNY   28  21  74 SE7       30.47S WCI  21
OSAGE BEACH    MOSUNNY   19  18  93 E3        30.50F
SPRINGFIELD    MOSUNNY   29  18  63 E10       30.44F WCI  20
BRANSON        PTSUNNY   28  23  80 E9        30.45F WCI  20
NEVADA         PTSUNNY   23  23 100 NE5       30.50S WCI  17
JOPLIN         MOSUNNY   28  19  69 E10       30.46R WCI  19
WEST PLAINS    MOSUNNY   29  20  69 NE9       30.46S WCI  20

$$

IAZ060-094-KSZ022-034>040-054-083-096-NEZ052-066-093-021600-
...KANSAS...SOUTHEAST NEBRASKA AND IOWA...

CITY           SKY/WX    TMP DP  RH WIND       PRES   REMARKS
TOPEKA         MOSUNNY   27  23  85 CALM      30.49F
MANHATTAN      MOSUNNY   26  22  84 CALM      30.46F
EMPORIA        PTSUNNY   26  22  84 E3        30.45F FOG
CHANUTE        PTSUNNY   28  23  81 E7        30.47R WCI  21
WICHITA        CLOUDY    26  20  77 SE6       30.42F WCI  19
OMAHA          PTSUNNY   25  16  68 SE8       30.48R WCI  16
LINCOLN        CLOUDY    29  17  61 SE10      30.44F WCI  20
FALLS CITY     CLOUDY    29  24  82 SE7       30.46F WCI  22
LAMONI         MOSUNNY   25  17  72 E7        30.49F WCI  17
DES MOINES     CLOUDY    24  11  57 E7        30.52S WCI  16

$$




USA.gov is the U.S. government's official web portal to all federal, state and local government web resources and services.